Time,TemperatureF,DewpointF,PressureIn,WindDirection,WindDirectionDegrees,WindSpeedMPH,WindSpeedGustMPH,Humidity,HourlyPrecipIn,Conditions,Clouds,dailyrainin,SoftwareType,DateUTC
2013-03-13 00:02:00,58.0,18.0,-100.00,NE,45,13.0,20.0,21,-99.99,,,-99.99,,2013-03-13 07:02:00,
2013-03-13 00:12:00,58.0,18.0,-100.00,NE,43,12.0,21.0,21,-99.99,,,-99.99,,2013-03-13 07:12:00,
2013-03-13 00:22:00,58.0,18.0,-100.00,NE,45,11.0,17.0,21,-99.99,,,-99.99,,2013-03-13 07:22:00,
2013-03-13 00:32:00,58.0,18.0,-100.00,NE,47,12.0,20.0,21,-99.99,,,-99.99,,2013-03-13 07:32:00,
2013-03-13 00:42:00,59.0,19.0,-100.00,NE,43,12.0,17.0,21,-99.99,,,-99.99,,2013-03-13 07:42:00,
2013-03-13 00:52:00,59.0,19.0,-100.00,NE,44,12.0,20.0,21,-99.99,,,-99.99,,2013-03-13 07:52:00,
2013-03-13 01:02:00,59.0,18.0,-100.00,NE,45,12.0,20.0,20,-99.99,,,-99.99,,2013-03-13 08:02:00,
2013-03-13 01:12:00,59.0,19.0,-100.00,NE,49,12.0,20.0,21,-99.99,,,-99.99,,2013-03-13 08:12:00,
2013-03-13 01:22:00,59.0,19.0,-100.00,NE,48,12.0,19.0,21,-99.99,,,-99.99,,2013-03-13 08:22:00,
2013-03-13 01:32:00,59.0,19.0,-100.00,NE,48,12.0,19.0,21,-99.99,,,-99.99,,2013-03-13 08:32:00,
2013-03-13 01:42:00,59.0,19.0,-100.00,NE,47,11.0,18.0,21,-99.99,,,-99.99,,2013-03-13 08:42:00,
2013-03-13 01:52:00,58.0,18.0,-100.00,NE,41,12.0,19.0,21,-99.99,,,-99.99,,2013-03-13 08:52:00,
2013-03-13 02:02:00,59.0,19.0,-100.00,NE,44,12.0,19.0,21,-99.99,,,-99.99,,2013-03-13 09:02:00,
2013-03-13 02:12:00,58.0,19.0,-100.00,NE,40,11.0,18.0,22,-99.99,,,-99.99,,2013-03-13 09:12:00,
2013-03-13 02:22:00,58.0,19.0,-100.00,NE,43,12.0,18.0,22,-99.99,,,-99.99,,2013-03-13 09:22:00,
2013-03-13 02:32:00,59.0,20.0,-100.00,NE,45,13.0,20.0,22,-99.99,,,-99.99,,2013-03-13 09:32:00,
2013-03-13 02:42:00,58.0,19.0,-100.00,NE,43,12.0,20.0,22,-99.99,,,-99.99,,2013-03-13 09:42:00,
2013-03-13 02:52:00,58.0,19.0,-100.00,NE,43,12.0,19.0,22,-99.99,,,-99.99,,2013-03-13 09:52:00,
2013-03-13 03:01:00,59.0,20.0,-100.00,NE,43,12.0,20.0,22,-99.99,,,-99.99,,2013-03-13 10:01:00,
2013-03-13 03:11:00,59.0,20.0,-100.00,NE,41,12.0,17.0,22,-99.99,,,-99.99,,2013-03-13 10:11:00,
2013-03-13 03:22:00,58.0,20.0,-100.00,NE,42,11.0,19.0,23,-99.99,,,-99.99,,2013-03-13 10:22:00,
2013-03-13 03:32:00,58.0,20.0,-100.00,NE,41,11.0,17.0,23,-99.99,,,-99.99,,2013-03-13 10:32:00,
2013-03-13 03:42:00,58.0,20.0,-100.00,NE,41,10.0,15.0,23,-99.99,,,-99.99,,2013-03-13 10:42:00,
2013-03-13 03:52:00,58.0,20.0,-100.00,NE,43,11.0,18.0,23,-99.99,,,-99.99,,2013-03-13 10:52:00,
2013-03-13 04:02:00,58.0,20.0,-100.00,NE,38,10.0,15.0,23,-99.99,,,-99.99,,2013-03-13 11:02:00,
2013-03-13 04:12:00,58.0,21.0,-100.00,NE,44,9.0,17.0,24,-99.99,,,-99.99,,2013-03-13 11:12:00,
2013-03-13 04:22:00,58.0,20.0,-100.00,NE,41,9.0,17.0,23,-99.99,,,-99.99,,2013-03-13 11:22:00,
2013-03-13 04:32:00,58.0,20.0,-100.00,NE,44,8.0,16.0,23,-99.99,,,-99.99,,2013-03-13 11:32:00,
2013-03-13 04:42:00,58.0,20.0,-100.00,NE,44,8.0,16.0,23,-99.99,,,-99.99,,2013-03-13 11:42:00,
2013-03-13 04:52:00,58.0,20.0,-100.00,NE,47,7.0,16.0,23,-99.99,,,-99.99,,2013-03-13 11:52:00,
2013-03-13 05:02:00,58.0,20.0,-100.00,NE,46,7.0,12.0,23,-99.99,,,-99.99,,2013-03-13 12:02:00,
2013-03-13 05:12:00,58.0,20.0,-100.00,NE,36,8.0,15.0,23,-99.99,,,-99.99,,2013-03-13 12:12:00,
2013-03-13 05:22:00,58.0,20.0,-100.00,ENE,62,8.0,14.0,23,-99.99,,,-99.99,,2013-03-13 12:22:00,
2013-03-13 05:32:00,58.0,20.0,-100.00,ENE,60,11.0,19.0,23,-99.99,,,-99.99,,2013-03-13 12:32:00,
2013-03-13 05:42:00,58.0,20.0,-100.00,NE,51,12.0,20.0,23,-99.99,,,-99.99,,2013-03-13 12:42:00,
2013-03-13 05:52:00,58.0,20.0,-100.00,NE,46,11.0,17.0,23,-99.99,,,-99.99,,2013-03-13 12:52:00,
2013-03-13 06:02:00,58.0,20.0,-100.00,NE,53,10.0,21.0,23,-99.99,,,-99.99,,2013-03-13 13:02:00,
2013-03-13 06:11:00,58.0,20.0,-100.00,NE,50,10.0,16.0,23,-99.99,,,-99.99,,2013-03-13 13:11:00,
2013-03-13 06:22:00,58.0,20.0,-100.00,NE,47,10.0,18.0,23,-99.99,,,-99.99,,2013-03-13 13:22:00,
2013-03-13 06:32:00,58.0,20.0,-100.00,NE,45,11.0,17.0,23,-99.99,,,-99.99,,2013-03-13 13:32:00,
2013-03-13 06:42:00,58.0,20.0,-100.00,NE,47,9.0,16.0,23,-99.99,,,-99.99,,2013-03-13 13:42:00,
2013-03-13 06:52:00,58.0,20.0,-100.00,NE,49,9.0,15.0,23,-99.99,,,-99.99,,2013-03-13 13:52:00,
2013-03-13 07:02:00,58.0,20.0,-100.00,NE,52,9.0,14.0,23,-99.99,,,-99.99,,2013-03-13 14:02:00,
2013-03-13 07:11:00,58.0,20.0,-100.00,NE,46,9.0,17.0,23,-99.99,,,-99.99,,2013-03-13 14:11:00,
2013-03-13 07:21:00,58.0,19.0,-100.00,NE,43,10.0,18.0,22,-99.99,,,-99.99,,2013-03-13 14:21:00,
2013-03-13 07:33:00,58.0,19.0,-100.00,NE,44,12.0,21.0,22,-99.99,,,-99.99,,2013-03-13 14:33:00,
2013-03-13 07:42:00,58.0,19.0,-100.00,NE,39,13.0,23.0,22,-99.99,,,-99.99,,2013-03-13 14:42:00,
2013-03-13 07:52:00,58.0,19.0,-100.00,NE,38,13.0,20.0,22,-99.99,,,-99.99,,2013-03-13 14:52:00,
2013-03-13 08:02:00,58.0,19.0,-100.00,NE,40,13.0,20.0,22,-99.99,,,-99.99,,2013-03-13 15:02:00,
2013-03-13 08:11:00,58.0,19.0,-100.00,NE,43,14.0,21.0,22,-99.99,,,-99.99,,2013-03-13 15:11:00,
2013-03-13 08:22:00,59.0,20.0,-100.00,NE,42,13.0,22.0,22,-99.99,,,-99.99,,2013-03-13 15:22:00,
2013-03-13 08:32:00,59.0,19.0,-100.00,NE,42,13.0,22.0,21,-99.99,,,-99.99,,2013-03-13 15:32:00,
2013-03-13 08:42:00,60.0,20.0,-100.00,NE,43,12.0,19.0,21,-99.99,,,-99.99,,2013-03-13 15:42:00,
2013-03-13 08:52:00,60.0,20.0,-100.00,NE,43,12.0,18.0,21,-99.99,,,-99.99,,2013-03-13 15:52:00,
2013-03-13 09:02:00,60.0,20.0,-100.00,NE,41,11.0,19.0,21,-99.99,,,-99.99,,2013-03-13 16:02:00,
2013-03-13 09:12:00,61.0,20.0,-100.00,NE,40,12.0,20.0,20,-99.99,,,-99.99,,2013-03-13 16:12:00,
2013-03-13 09:22:00,61.0,20.0,-100.00,NE,40,13.0,21.0,20,-99.99,,,-99.99,,2013-03-13 16:22:00,
2013-03-13 09:32:00,61.0,20.0,-100.00,NE,40,13.0,22.0,20,-99.99,,,-99.99,,2013-03-13 16:32:00,
2013-03-13 09:42:00,62.0,20.0,-100.00,NE,46,14.0,23.0,20,-99.99,,,-99.99,,2013-03-13 16:42:00,
2013-03-13 09:52:00,62.0,20.0,-100.00,NE,51,13.0,19.0,20,-99.99,,,-99.99,,2013-03-13 16:52:00,
2013-03-13 10:02:00,62.0,20.0,-100.00,NE,56,12.0,18.0,20,-99.99,,,-99.99,,2013-03-13 17:02:00,
2013-03-13 10:11:00,63.0,21.0,-100.00,NE,43,11.0,19.0,20,-99.99,,,-99.99,,2013-03-13 17:11:00,
2013-03-13 10:22:00,63.0,20.0,-100.00,NE,41,14.0,28.0,19,-99.99,,,-99.99,,2013-03-13 17:22:00,
2013-03-13 10:32:00,63.0,20.0,-100.00,NE,38,15.0,26.0,19,-99.99,,,-99.99,,2013-03-13 17:32:00,
2013-03-13 10:42:00,63.0,20.0,-100.00,NE,41,15.0,24.0,19,-99.99,,,-99.99,,2013-03-13 17:42:00,
2013-03-13 10:53:00,64.0,21.0,-100.00,NE,38,13.0,22.0,19,-99.99,,,-99.99,,2013-03-13 17:53:00,
2013-03-13 11:02:00,64.0,21.0,-100.00,NE,38,16.0,23.0,19,-99.99,,,-99.99,,2013-03-13 18:02:00,
2013-03-13 11:12:00,64.0,21.0,-100.00,NE,41,15.0,23.0,19,-99.99,,,-99.99,,2013-03-13 18:12:00,
2013-03-13 11:22:00,64.0,21.0,-100.00,NE,44,15.0,27.0,19,-99.99,,,-99.99,,2013-03-13 18:22:00,
2013-03-13 11:32:00,64.0,21.0,-100.00,NE,36,15.0,25.0,19,-99.99,,,-99.99,,2013-03-13 18:32:00,
2013-03-13 11:42:00,65.0,20.0,-100.00,NE,39,15.0,24.0,18,-99.99,,,-99.99,,2013-03-13 18:42:00,
2013-03-13 11:52:00,65.0,19.0,-100.00,NE,39,15.0,23.0,17,-99.99,,,-99.99,,2013-03-13 18:52:00,
2013-03-13 12:02:00,65.0,19.0,-100.00,NE,44,15.0,24.0,17,-99.99,,,-99.99,,2013-03-13 19:02:00,
2013-03-13 12:12:00,66.0,19.0,-100.00,NE,39,15.0,23.0,16,-99.99,,,-99.99,,2013-03-13 19:12:00,
2013-03-13 12:22:00,66.0,19.0,-100.00,NE,38,15.0,24.0,16,-99.99,,,-99.99,,2013-03-13 19:22:00,
2013-03-13 12:32:00,66.0,19.0,-100.00,NE,38,15.0,24.0,16,-99.99,,,-99.99,,2013-03-13 19:32:00,
2013-03-13 12:42:00,66.0,17.0,-100.00,NE,39,12.0,21.0,15,-99.99,,,-99.99,,2013-03-13 19:42:00,
2013-03-13 12:52:00,67.0,18.0,-100.00,NE,41,11.0,17.0,15,-99.99,,,-99.99,,2013-03-13 19:52:00,
2013-03-13 13:02:00,68.0,17.0,-100.00,NE,35,9.0,16.0,14,-99.99,,,-99.99,,2013-03-13 20:02:00,
2013-03-13 13:11:00,68.0,17.0,-100.00,NE,37,9.0,17.0,14,-99.99,,,-99.99,,2013-03-13 20:11:00,
2013-03-13 13:22:00,68.0,17.0,-100.00,NE,41,7.0,16.0,14,-99.99,,,-99.99,,2013-03-13 20:22:00,
2013-03-13 13:32:00,68.0,17.0,-100.00,North,357,7.0,12.0,14,-99.99,,,-99.99,,2013-03-13 20:32:00,
2013-03-13 13:41:00,69.0,18.0,-100.00,North,0,6.0,12.0,14,-99.99,,,-99.99,,2013-03-13 20:41:00,
2013-03-13 13:52:00,68.0,17.0,-100.00,NNE,12,10.0,15.0,14,-99.99,,,-99.99,,2013-03-13 20:52:00,
2013-03-13 14:02:00,68.0,17.0,-100.00,NNE,23,7.0,13.0,14,-99.99,,,-99.99,,2013-03-13 21:02:00,
2013-03-13 14:11:00,68.0,15.0,-100.00,NNE,33,6.0,11.0,13,-99.99,,,-99.99,,2013-03-13 21:11:00,
2013-03-13 14:21:00,69.0,16.0,-100.00,NNE,30,5.0,11.0,13,-99.99,,,-99.99,,2013-03-13 21:21:00,
2013-03-13 14:32:00,69.0,16.0,-100.00,NNE,30,5.0,11.0,13,-99.99,,,-99.99,,2013-03-13 21:32:00,
2013-03-13 14:41:00,69.0,16.0,-100.00,NE,47,7.0,13.0,13,-99.99,,,-99.99,,2013-03-13 21:41:00,
2013-03-13 14:51:00,69.0,18.0,-100.00,ENE,70,6.0,10.0,14,-99.99,,,-99.99,,2013-03-13 21:51:00,
2013-03-13 15:02:00,69.0,18.0,-100.00,ESE,105,4.0,14.0,14,-99.99,,,-99.99,,2013-03-13 22:02:00,
2013-03-13 15:12:00,69.0,19.0,-100.00,North,349,7.0,12.0,15,-99.99,,,-99.99,,2013-03-13 22:12:00,
2013-03-13 15:22:00,69.0,18.0,-100.00,NE,40,6.0,11.0,14,-99.99,,,-99.99,,2013-03-13 22:22:00,
2013-03-13 15:31:00,69.0,18.0,-100.00,NE,51,6.0,13.0,14,-99.99,,,-99.99,,2013-03-13 22:31:00,
2013-03-13 15:42:00,70.0,19.0,-100.00,NE,35,3.0,10.0,14,-99.99,,,-99.99,,2013-03-13 22:42:00,
2013-03-13 15:52:00,69.0,16.0,-100.00,ENE,72,8.0,13.0,13,-99.99,,,-99.99,,2013-03-13 22:52:00,
2013-03-13 16:02:00,69.0,16.0,-100.00,ENE,72,8.0,13.0,13,-99.99,,,-99.99,,2013-03-13 23:02:00,
2013-03-13 16:12:00,69.0,18.0,-100.00,NE,46,5.0,12.0,14,-99.99,,,-99.99,,2013-03-13 23:12:00,
2013-03-13 16:22:00,69.0,18.0,-100.00,NNE,25,5.0,12.0,14,-99.99,,,-99.99,,2013-03-13 23:22:00,
2013-03-13 16:32:00,70.0,19.0,-100.00,NE,36,6.0,13.0,14,-99.99,,,-99.99,,2013-03-13 23:32:00,
2013-03-13 16:42:00,70.0,19.0,-100.00,North,7,5.0,9.0,14,-99.99,,,-99.99,,2013-03-13 23:42:00,
2013-03-13 16:52:00,70.0,19.0,-100.00,North,9,5.0,11.0,14,-99.99,,,-99.99,,2013-03-13 23:52:00,
2013-03-13 17:02:00,69.0,18.0,-100.00,NE,56,6.0,11.0,14,-99.99,,,-99.99,,2013-03-14 00:02:00,
2013-03-13 17:12:00,69.0,18.0,-100.00,NE,44,6.0,10.0,14,-99.99,,,-99.99,,2013-03-14 00:12:00,
2013-03-13 17:22:00,69.0,19.0,-100.00,North,355,5.0,11.0,15,-99.99,,,-99.99,,2013-03-14 00:22:00,
2013-03-13 17:32:00,69.0,19.0,-100.00,NNW,337,5.0,10.0,15,-99.99,,,-99.99,,2013-03-14 00:32:00,
2013-03-13 17:42:00,69.0,19.0,-100.00,NNW,344,6.0,10.0,15,-99.99,,,-99.99,,2013-03-14 00:42:00,
2013-03-13 17:52:00,68.0,19.0,-100.00,NNW,343,5.0,8.0,15,-99.99,,,-99.99,,2013-03-14 00:52:00,
2013-03-13 18:02:00,69.0,18.0,-100.00,NNE,19,4.0,10.0,14,-99.99,,,-99.99,,2013-03-14 01:02:00,
2013-03-13 18:12:00,69.0,18.0,-100.00,NE,45,3.0,10.0,14,-99.99,,,-99.99,,2013-03-14 01:12:00,
2013-03-13 18:22:00,68.0,19.0,-100.00,NNE,28,4.0,11.0,15,-99.99,,,-99.99,,2013-03-14 01:22:00,
2013-03-13 18:32:00,68.0,20.0,-100.00,NNW,338,2.0,7.0,16,-99.99,,,-99.99,,2013-03-14 01:32:00,
2013-03-13 18:42:00,68.0,20.0,-100.00,SSW,192,1.0,5.0,16,-99.99,,,-99.99,,2013-03-14 01:42:00,
2013-03-13 18:52:00,68.0,20.0,-100.00,NW,310,2.0,5.0,16,-99.99,,,-99.99,,2013-03-14 01:52:00,
2013-03-13 19:02:00,68.0,20.0,-100.00,NW,310,2.0,5.0,16,-99.99,,,-99.99,,2013-03-14 02:02:00,
2013-03-13 19:12:00,64.0,22.0,-100.00,East,93,2.0,5.0,20,-99.99,,,-99.99,,2013-03-14 02:12:00,
2013-03-13 19:22:00,62.0,23.0,-100.00,ENE,71,1.0,6.0,22,-99.99,,,-99.99,,2013-03-14 02:22:00,
2013-03-13 19:32:00,58.0,28.0,-100.00,ENE,71,0.0,2.0,32,-99.99,,,-99.99,,2013-03-14 02:32:00,
2013-03-13 19:42:00,58.0,28.0,-100.00,ENE,71,0.0,2.0,32,-99.99,,,-99.99,,2013-03-14 02:42:00,
2013-03-13 19:51:00,58.0,28.0,-100.00,ENE,71,0.0,2.0,32,-99.99,,,-99.99,,2013-03-14 02:51:00,
2013-03-13 20:01:00,52.0,28.0,-100.00,WNW,288,1.0,3.0,39,-99.99,,,-99.99,,2013-03-14 03:01:00,
2013-03-13 20:12:00,59.0,21.0,-100.00,NE,56,6.0,11.0,23,-99.99,,,-99.99,,2013-03-14 03:12:00,
2013-03-13 20:22:00,62.0,20.0,-100.00,ENE,61,8.0,14.0,20,-99.99,,,-99.99,,2013-03-14 03:22:00,
2013-03-13 20:32:00,62.0,19.0,-100.00,NE,56,7.0,13.0,19,-99.99,,,-99.99,,2013-03-14 03:32:00,
2013-03-13 20:42:00,62.0,20.0,-100.00,ENE,62,7.0,11.0,20,-99.99,,,-99.99,,2013-03-14 03:42:00,
2013-03-13 20:52:00,61.0,20.0,-100.00,ENE,66,7.0,11.0,20,-99.99,,,-99.99,,2013-03-14 03:52:00,
2013-03-13 21:11:00,62.0,20.0,-100.00,ENE,67,7.0,10.0,20,-99.99,,,-99.99,,2013-03-14 04:11:00,
2013-03-13 21:22:00,62.0,20.0,-100.00,ENE,69,7.0,12.0,20,-99.99,,,-99.99,,2013-03-14 04:22:00,
2013-03-13 21:32:00,62.0,19.0,-100.00,ENE,62,9.0,15.0,19,-99.99,,,-99.99,,2013-03-14 04:32:00,
2013-03-13 21:42:00,62.0,19.0,-100.00,ENE,62,9.0,15.0,19,-99.99,,,-99.99,,2013-03-14 04:42:00,
2013-03-13 21:52:00,62.0,19.0,-100.00,ENE,63,10.0,14.0,19,-99.99,,,-99.99,,2013-03-14 04:52:00,
2013-03-13 22:02:00,62.0,19.0,-100.00,ENE,61,10.0,15.0,19,-99.99,,,-99.99,,2013-03-14 05:02:00,
2013-03-13 22:12:00,62.0,19.0,-100.00,ENE,61,10.0,15.0,19,-99.99,,,-99.99,,2013-03-14 05:12:00,
2013-03-13 22:22:00,62.0,19.0,-100.00,ENE,61,9.0,15.0,19,-99.99,,,-99.99,,2013-03-14 05:22:00,
2013-03-13 22:32:00,62.0,19.0,-100.00,ENE,59,8.0,13.0,19,-99.99,,,-99.99,,2013-03-14 05:32:00,
2013-03-13 22:42:00,62.0,19.0,-100.00,ENE,59,8.0,13.0,19,-99.99,,,-99.99,,2013-03-14 05:42:00,
2013-03-13 22:52:00,62.0,19.0,-100.00,ENE,61,8.0,13.0,19,-99.99,,,-99.99,,2013-03-14 05:52:00,
2013-03-13 23:02:00,62.0,19.0,-100.00,NE,54,8.0,13.0,19,-99.99,,,-99.99,,2013-03-14 06:02:00,
2013-03-13 23:12:00,62.0,19.0,-100.00,NE,53,9.0,15.0,19,-99.99,,,-99.99,,2013-03-14 06:12:00,
2013-03-13 23:21:00,62.0,19.0,-100.00,NE,49,10.0,16.0,19,-99.99,,,-99.99,,2013-03-14 06:21:00,
2013-03-13 23:32:00,63.0,20.0,-100.00,NE,46,11.0,20.0,19,-99.99,,,-99.99,,2013-03-14 06:32:00,
2013-03-13 23:42:00,63.0,20.0,-100.00,NE,47,11.0,21.0,19,-99.99,,,-99.99,,2013-03-14 06:42:00,
2013-03-13 23:52:00,63.0,20.0,-100.00,NE,39,10.0,22.0,19,-99.99,,,-99.99,,2013-03-14 06:52:00,